FW7988 Weather Reports


Display with metric or nautical units.
time (UTC)temp
F
wind
direction
speed
MPH
gust
MPH
rain 1hr
in
rain 24hr
in
rain mn
in
humidity
%
barometer
mb
20260507141703 56 331 4.0 9.0 0.00 0.00 0.00 91
20260507141201 56 319 5.0 11.0 0.00 0.00 0.00 91
20260507140657 56 354 10.0 15.0 0.00 0.00 0.00 91
20260507140155 56 6 11.0 14.0 0.00 0.00 0.00 90
20260507135651 56 351 8.0 11.0 0.00 0.00 0.00 91
20260507135149 56 288 8.0 11.0 0.00 0.00 0.00 91
20260507134645 56 19 6.0 11.0 0.00 0.00 0.00 91
20260507134141 56 350 8.0 13.0 0.00 0.00 0.00 91
20260507133637 56 321 7.0 10.0 0.00 0.00 0.00 91
20260507133135 56 4 4.0 9.0 0.00 0.00 0.00 91
20260507132632 56 354 4.0 7.0 0.00 0.00 0.00 91
20260507132128 56 341 11.0 13.0 0.00 0.00 0.00 91
20260507131625 57 348 9.0 15.0 0.00 0.00 0.00 90
20260507131122 57 11 4.0 13.0 0.00 0.00 0.00 90
20260507130619 57 352 9.0 14.0 0.00 0.00 0.00 89
20260507130117 57 35 9.0 10.0 0.00 0.00 0.00 89
20260507125616 57 358 9.0 11.0 0.00 0.00 0.00 89
20260507125113 57 329 5.0 9.0 0.00 0.00 0.00 89
20260507124609 57 4 9.0 11.0 0.00 0.00 0.00 88
20260507124107 57 350 3.0 7.0 0.00 0.00 0.00 88
20260507123605 57 323 9.0 13.0 0.00 0.00 0.00 88
20260507123101 57 335 7.0 14.0 0.00 0.00 0.00 88
20260507122556 57 9 10.0 15.0 0.00 0.00 0.00 88
20260507122052 57 30 12.0 14.0 0.00 0.00 0.00 88
20260507121548 57 4 8.0 16.0 0.00 0.00 0.00 88
20260507121045 57 359 15.0 17.0 0.00 0.00 0.00 89
20260507120541 57 354 11.0 16.0 0.00 0.00 0.00 89
20260507120038 57 339 9.0 17.0 0.00 0.00 0.00 89
20260507115534 57 15 7.0 11.0 0.00 0.00 0.00 89
20260507115030 57 3 7.0 10.0 0.00 0.00 0.00 89
20260507114526 57 10 11.0 16.0 0.00 0.00 0.00 89
20260507114023 57 13 7.0 14.0 0.00 0.00 0.00 89
20260507113521 57 331 9.0 13.0 0.00 0.00 0.00 89
20260507113018 57 354 8.0 14.0 0.00 0.00 0.00 89
20260507112516 57 351 9.0 15.0 0.00 0.00 0.00 89
20260507112012 57 341 10.0 14.0 0.00 0.00 0.00 89
20260507111510 58 342 8.0 10.0 0.00 0.00 0.00 89
20260507111005 58 335 7.0 13.0 0.00 0.00 0.00 89
20260507110502 58 332 7.0 13.0 0.00 0.00 0.00 89
20260507105958 58 67 6.0 11.0 0.00 0.00 0.00 89
20260507105455 58 4 10.0 18.0 0.00 0.00 0.00 89
20260507104951 58 30 5.0 11.0 0.00 0.00 0.00 89
20260507104449 58 17 9.0 11.0 0.00 0.00 0.00 89
20260507103944 58 28 14.0 21.0 0.00 0.00 0.00 88
20260507103441 58 6 9.0 16.0 0.00 0.00 0.00 88
20260507102937 58 334 8.0 13.0 0.00 0.00 0.00 88
20260507102434 58 350 9.0 10.0 0.00 0.00 0.00 88
20260507101931 58 16 4.0 6.0 0.00 0.00 0.00 88
20260507101426 58 316 5.0 8.0 0.00 0.00 0.00 88
20260507100923 58 4 8.0 10.0 0.00 0.00 0.00 87
20260507100420 58 7 5.0 11.0 0.00 0.00 0.00 87
20260507095919 58 345 10.0 10.0 0.00 0.00 0.00 87
20260507095415 58 339 7.0 11.0 0.00 0.00 0.00 87
20260507094913 59 346 3.0 9.0 0.00 0.00 0.00 86
20260507094408 59 339 7.0 13.0 0.00 0.00 0.00 86
20260507093906 59 22 6.0 13.0 0.00 0.00 0.00 86
20260507093404 59 346 5.0 6.0 0.00 0.00 0.00 86
20260507092902 59 345 5.0 7.0 0.00 0.00 0.00 86
20260507092357 59 9 7.0 13.0 0.00 0.00 0.00 86
20260507091854 59 1 6.0 8.0 0.00 0.00 0.00 86
20260507091351 59 351 6.0 8.0 0.00 0.00 0.00 86
20260507090846 59 341 1.0 3.0 0.00 0.00 0.00 86
20260507090343 59 342 5.0 6.0 0.00 0.00 0.00 86
20260507085840 59 341 4.0 6.0 0.00 0.00 0.00 86
20260507085337 59 359 2.0 5.0 0.00 0.00 0.00 86
20260507084834 59 7 4.0 6.0 0.00 0.00 0.00 86
20260507084330 59 16 3.0 6.0 0.00 0.00 0.00 86
20260507083828 59 28 4.0 9.0 0.00 0.00 0.00 86
20260507083324 59 343 3.0 3.0 0.00 0.00 0.00 86
20260507082820 59 0 2.0 3.0 0.00 0.00 0.00 86
20260507082316 59 14 2.0 2.0 0.00 0.00 0.00 86
20260507081814 59 21 2.0 3.0 0.00 0.00 0.00 86
20260507081309 59 345 4.0 5.0 0.00 0.00 0.00 85
20260507080806 59 336 3.0 3.0 0.00 0.00 0.00 86
20260507080303 59 346 4.0 7.0 0.00 0.00 0.00 86
20260507075757 59 1 3.0 3.0 0.00 0.00 0.00 86
20260507075254 59 26 2.0 7.0 0.00 0.00 0.00 86
20260507074750 59 18 1.0 5.0 0.00 0.00 0.00 86
20260507074249 59 18 2.0 2.0 0.00 0.00 0.00 86
20260507073745 59 344 1.0 5.0 0.00 0.00 0.00 86
20260507073242 59 30 3.0 5.0 0.00 0.00 0.00 86
20260507072740 59 22 3.0 5.0 0.00 0.00 0.00 86
20260507072237 59 36 5.0 6.0 0.00 0.00 0.00 86
20260507071734 59 41 2.0 3.0 0.00 0.00 0.00 85
20260507071230 59 52 0.0 2.0 0.00 0.00 0.00 85
20260507070727 59 62 3.0 5.0 0.00 0.00 0.00 85
20260507070224 60 37 2.0 5.0 0.00 0.00 0.00 85
20260507065721 60 24 3.0 6.0 0.00 0.00 0.00 85
20260507065218 60 45 1.0 3.0 0.00 0.00 0.00 85
20260507064715 60 60 4.0 5.0 0.00 0.00 0.00 84
20260507064214 60 52 2.0 2.0 0.00 0.00 0.00 84
20260507063711 60 43 1.0 7.0 0.00 0.00 0.00 84
20260507063207 60 356 5.0 6.0 0.00 0.00 0.00 84
20260507062704 60 36 3.0 8.0 0.00 0.00 0.00 84
20260507062202 60 8 3.0 7.0 0.00 0.00 0.00 84
20260507061700 60 35 5.0 8.0 0.00 0.00 0.00 84
20260507061158 60 348 4.0 7.0 0.00 0.00 0.00 84
20260507060655 60 63 7.0 10.0 0.00 0.00 0.00 84
20260507060151 60 27 4.0 7.0 0.00 0.00 0.00 84
20260507055647 60 348 6.0 7.0 0.00 0.00 0.00 84
20260507055143 60 348 4.0 8.0 0.00 0.00 0.00 84
20260507054639 60 41 5.0 7.0 0.00 0.00 0.00 85
20260507054137 60 57 4.0 8.0 0.00 0.00 0.00 85
20260507053635 60 41 2.0 6.0 0.00 0.00 0.00 85
20260507053132 60 50 4.0 9.0 0.00 0.00 0.00 85
20260507052631 60 50 3.0 6.0 0.00 0.00 0.00 85
20260507052126 60 22 5.0 6.0 0.00 0.00 0.00 85
20260507051624 60 27 3.0 6.0 0.00 0.00 0.00 85
20260507051121 60 24 4.0 10.0 0.00 0.00 0.00 84
20260507050618 60 48 2.0 9.0 0.00 0.00 0.00 84
20260507050114 60 53 3.0 8.0 0.00 0.00 0.00 84
20260507045611 60 0 4.0 7.0 0.00 0.00 0.00 84
20260507045108 60 54 1.0 8.0 0.00 0.00 0.00 84
20260507044605 60 341 12.0 14.0 0.00 0.00 0.00 84
20260507044102 60 340 5.0 11.0 0.00 0.00 0.00 84
20260507043557 60 57 4.0 10.0 0.00 0.00 0.00 85
20260507043055 60 18 3.0 6.0 0.00 0.00 0.00 85
20260507042550 60 41 4.0 8.0 0.00 0.00 0.00 85
20260507042046 60 9 8.0 11.0 0.00 0.00 0.00 85
20260507041543 60 0 4.0 8.0 0.00 0.00 0.00 85
20260507041040 60 341 7.0 11.0 0.00 0.00 0.00 85
20260507040537 60 358 6.0 8.0 0.00 0.00 0.00 85
20260507040033 61 30 9.0 13.0 0.00 0.00 0.00 84
20260507035529 61 39 8.0 13.0 0.00 0.00 0.00 84
20260507035026 61 353 6.0 11.0 0.00 0.00 0.00 84
20260507034522 61 0 9.0 14.0 0.00 0.00 0.00 84
20260507034021 61 341 9.0 13.0 0.00 0.00 0.00 84
20260507033518 61 344 7.0 11.0 0.00 0.00 0.00 84
20260507033015 61 317 6.0 11.0 0.00 0.00 0.00 84
20260507032512 61 1 7.0 10.0 0.00 0.00 0.00 84
20260507032008 61 43 10.0 14.0 0.00 0.00 0.00 84
20260507031504 61 2 7.0 9.0 0.00 0.00 0.00 84
20260507031002 61 8 6.0 9.0 0.00 0.00 0.00 84
20260507030459 62 348 5.0 10.0 0.00 0.00 0.00 84
20260507025956 62 1 5.0 7.0 0.00 0.00 0.00 84
20260507025453 62 350 8.0 16.0 0.00 0.00 0.00 84
20260507024951 61 341 8.0 11.0 0.00 0.00 0.00 85
20260507024448 61 340 10.0 13.0 0.00 0.00 0.00 86
20260507023944 61 336 4.0 10.0 0.00 0.00 0.00 86
20260507023441 61 358 5.0 6.0 0.00 0.00 0.00 85
20260507022938 62 330 6.0 10.0 0.00 0.00 0.00 85
20260507022435 62 343 9.0 11.0 0.00 0.00 0.00 85
20260507021930 62 326 6.0 7.0 0.00 0.00 0.00 85
20260507021426 61 350 4.0 9.0 0.00 0.00 0.00 85
20260507020924 61 338 5.0 9.0 0.00 0.00 0.00 85
20260507020420 61 327 6.0 8.0 0.00 0.00 0.00 85
20260507015917 61 3 6.0 8.0 0.00 0.00 0.00 85
20260507015416 61 342 8.0 9.0 0.00 0.00 0.00 85
20260507014912 61 352 7.0 9.0 0.00 0.00 0.00 85
20260507014409 61 333 6.0 9.0 0.00 0.00 0.00 85
20260507013905 61 326 4.0 8.0 0.00 0.00 0.00 85
20260507013402 61 332 6.0 7.0 0.00 0.00 0.00 85
20260507012900 61 341 6.0 8.0 0.00 0.00 0.00 85
20260507012355 61 344 5.0 8.0 0.00 0.00 0.00 84
20260507011853 62 338 7.0 8.0 0.00 0.00 0.00 84
20260507011350 62 337 7.0 9.0 0.00 0.00 0.00 84
20260507010849 62 6 3.0 7.0 0.00 0.00 0.00 84
20260507010345 62 335 4.0 8.0 0.00 0.00 0.00 84
20260507005843 62 333 6.0 9.0 0.00 0.00 0.00 84
20260507005339 62 323 10.0 11.0 0.00 0.00 0.00 83
20260507004836 62 352 6.0 14.0 0.00 0.00 0.00 83
20260507004333 62 348 6.0 7.0 0.00 0.00 0.00 83
20260507003830 62 0 9.0 13.0 0.00 0.00 0.00 83
20260507003326 62 46 9.0 10.0 0.00 0.00 0.00 83
20260507002821 62 351 6.0 14.0 0.00 0.00 0.00 83
20260507002317 62 342 8.0 11.0 0.00 0.00 0.00 84
20260507001815 61 342 10.0 13.0 0.00 0.00 0.00 83
20260507001312 62 13 7.0 14.0 0.00 0.00 0.00 83
20260507000808 62 358 7.0 11.0 0.00 0.00 0.00 83
20260507000259 62 341 10.0 13.0 0.00 0.00 0.00 83
20260506235755 62 359 7.0 9.0 0.00 0.00 0.00 83
20260506235250 62 358 4.0 7.0 0.00 0.00 0.00 83
20260506234748 62 345 6.0 8.0 0.00 0.00 0.00 84
20260506234245 62 334 7.0 11.0 0.00 0.00 0.00 83
20260506233742 62 345 9.0 11.0 0.00 0.00 0.00 83
20260506233239 62 320 8.0 17.0 0.00 0.00 0.00 83
20260506232735 61 334 9.0 14.0 0.00 0.00 0.00 83
20260506232230 61 351 9.0 11.0 0.00 0.00 0.00 84
20260506231728 61 3 7.0 14.0 0.00 0.00 0.00 83
20260506231226 62 354 10.0 16.0 0.00 0.00 0.00 83
20260506230722 61 338 6.0 14.0 0.00 0.00 0.00 84
20260506230219 62 340 11.0 15.0 0.00 0.00 0.00 83
20260506225716 62 51 8.0 11.0 0.00 0.00 0.00 83
20260506225213 62 276 10.0 16.0 0.00 0.00 0.00 83
20260506224709 62 341 8.0 17.0 0.00 0.00 0.00 83
20260506224207 62 8 9.0 13.0 0.00 0.00 0.00 83
20260506223702 62 352 13.0 15.0 0.00 0.00 0.00 83
20260506223158 62 342 12.0 15.0 0.00 0.00 0.00 82
20260506222656 62 11 9.0 18.0 0.00 0.00 0.00 82
20260506222151 62 338 11.0 18.0 0.00 0.00 0.00 82
20260506221650 62 5 12.0 15.0 0.00 0.00 0.00 82
20260506221147 63 25 11.0 15.0 0.00 0.00 0.00 81
20260506220644 63 8 8.0 13.0 0.00 0.00 0.00 82
20260506220139 63 358 9.0 14.0 0.00 0.00 0.00 82
20260506215636 62 314 10.0 14.0 0.00 0.00 0.00 83
20260506215131 62 17 7.0 14.0 0.00 0.00 0.00 83
20260506214628 62 338 12.0 15.0 0.00 0.00 0.00 83
20260506214126 62 338 14.0 16.0 0.00 0.00 0.00 83
20260506213624 62 337 10.0 15.0 0.00 0.00 0.00 83
20260506213121 63 10 18.0 21.0 0.00 0.00 0.00 82
20260506212618 63 326 11.0 17.0 0.00 0.00 0.00 83
20260506212113 64 329 12.0 15.0 0.00 0.00 0.00 83
20260506211608 64 329 6.0 16.0 0.00 0.00 0.00 83
20260506211106 64 321 9.0 17.0 0.00 0.00 0.00 83
20260506210603 64 331 8.0 14.0 0.00 0.00 0.00 83
20260506210059 65 323 10.0 14.0 0.00 0.00 0.00 82
20260506205556 66 310 13.0 16.0 0.00 0.00 0.00 80
20260506205051 66 351 11.0 14.0 0.00 0.00 0.00 81
20260506204549 66 325 11.0 13.0 0.00 0.00 0.00 81
20260506204046 67 337 12.0 15.0 0.00 0.00 0.00 80
20260506203544 66 1 6.0 13.0 0.00 0.00 0.00 81
20260506203040 66 346 7.0 17.0 0.00 0.00 0.00 82
20260506202538 67 341 9.0 16.0 0.00 0.00 0.00 80
20260506202034 68 332 15.0 20.0 0.00 0.00 0.00 79
20260506201532 68 333 12.0 18.0 0.00 0.00 0.00 80
20260506201028 68 319 10.0 16.0 0.00 0.00 0.00 81
20260506200524 68 327 10.0 17.0 0.00 0.00 0.00 81
20260506200021 68 309 12.0 22.0 0.00 0.00 0.00 80
20260506195518 68 325 16.0 21.0 0.00 0.00 0.00 80
20260506195014 69 316 18.0 23.0 0.00 0.00 0.00 79
20260506194512 69 328 10.0 17.0 0.00 0.00 0.00 80
20260506194008 69 350 13.0 17.0 0.00 0.00 0.00 79
20260506193506 70 358 14.0 20.0 0.00 0.00 0.00 79
20260506193003 69 12 11.0 16.0 0.00 0.00 0.00 81
20260506192500 69 333 12.0 18.0 0.00 0.00 0.00 80
20260506191955 69 317 12.0 18.0 0.00 0.00 0.00 81
20260506191452 72 349 17.0 22.0 0.00 0.00 0.00 78
20260506190949 74 314 17.0 20.0 0.00 0.00 0.00 78
20260506190446 74 323 11.0 15.0 0.00 0.00 0.00 77
20260506185942 76 283 5.0 13.0 0.00 0.00 0.00 75
20260506185439 77 13 7.0 10.0 0.00 0.00 0.00 74
20260506184937 79 327 5.0 7.0 0.00 0.00 0.00 74
20260506184433 80 77 3.0 7.0 0.00 0.00 0.00 70
20260506183931 79 66 0.0 2.0 0.00 0.00 0.00 72
20260506183426 79 338 3.0 7.0 0.00 0.00 0.00 71
20260506182923 78 57 2.0 5.0 0.00 0.00 0.00 71
20260506182421 77 344 1.0 5.0 0.00 0.00 0.00 74
20260506181918 77 69 2.0 7.0 0.00 0.00 0.00 72
20260506181416 76 309 2.0 5.0 0.00 0.00 0.00 73
20260506180912 76 36 3.0 5.0 0.00 0.00 0.00 74
20260506180408 77 39 5.0 6.0 0.00 0.00 0.00 73
20260506175905 76 27 5.0 7.0 0.00 0.00 0.00 75
20260506175402 74 46 1.0 3.0 0.00 0.00 0.00 75
20260506174859 75 87 3.0 8.0 0.00 0.00 0.00 76
20260506174356 75 47 3.0 5.0 0.00 0.00 0.00 74
20260506173854 74 32 2.0 5.0 0.00 0.00 0.00 73
20260506173350 72 38 1.0 2.0 0.00 0.00 0.00 77
20260506172848 71 9 2.0 6.0 0.00 0.00 0.00 78
20260506172344 71 72 7.0 9.0 0.00 0.00 0.00 78
20260506171842 70 30 4.0 7.0 0.00 0.00 0.00 79
20260506171338 71 62 8.0 10.0 0.00 0.00 0.00 78
20260506170836 70 66 3.0 10.0 0.00 0.00 0.00 80
20260506170331 69 352 2.0 6.0 0.00 0.00 0.00 80
20260506165826 69 47 5.0 7.0 0.00 0.00 0.00 79
20260506165323 68 340 3.0 7.0 0.00 0.00 0.00 80
20260506164819 68 33 5.0 10.0 0.00 0.00 0.00 79
20260506164316 66 359 4.0 6.0 0.00 0.00 0.00 83
20260506163813 66 29 7.0 8.0 0.00 0.00 0.00 82
20260506163308 66 7 6.0 8.0 0.00 0.00 0.00 85
20260506162804 66 348 7.0 10.0 0.00 0.00 0.00 85
20260506162306 65 316 5.0 6.0 0.00 0.00 0.00 87
20260506161759 65 341 9.0 17.0 0.00 0.00 0.00 87
20260506161256 65 348 12.0 14.0 0.00 0.00 0.00 87
20260506160754 66 359 11.0 15.0 0.00 0.00 0.00 86
20260506160250 67 315 10.0 21.0 0.00 0.00 0.00 86
20260506155749 69 328 17.0 20.0 0.00 0.00 0.00 85
20260506155245 73 344 11.0 18.0 0.00 0.00 0.00 82
20260506153358 77 60 1.0 3.0 0.00 0.00 0.00 85
20260506152855 77 34 2.0 3.0 0.00 0.00 0.00 85
20260506152352 77 76 2.0 2.0 0.00 0.00 0.00 85
20260506151851 77 78 2.0 2.0 0.00 0.00 0.00 85
20260506151347 77 74 0.0 2.0 0.00 0.00 0.00 85
20260506150845 77 140 0.0 0.0 0.00 0.00 0.00 84
20260506150341 77 119 3.0 3.0 0.00 0.00 0.00 84
20260506145838 77 115 0.0 3.0 0.00 0.00 0.00 85
20260506145334 77 139 2.0 7.0 0.00 0.00 0.00 85
20260506144832 76 179 3.0 7.0 0.00 0.00 0.00 85
20260506144328 76 165 2.0 5.0 0.00 0.00 0.00 86
20260506143827 76 155 3.0 6.0 0.00 0.00 0.00 87
20260506143323 75 202 2.0 5.0 0.00 0.00 0.00 88
20260506142822 76 148 5.0 9.0 0.00 0.00 0.00 87
20260506142319 76 138 3.0 8.0 0.00 0.00 0.00 86